User: anonymous   Login
Location: Caltech
(34.1382°N, 118.1253°W)
Time: 15:04:36
(UTC-07:00)
Language:

Cosmos 1833 Rocket - Orbit

View from above orbital plane
View from above orbital plane
View from above satellite
View from above satellite

Ground track
Ground track

The orbit data is extracted from the following two-line orbital elements,

1 17590U 87027B   17081.85109569 -.00000014 +00000-0 +17018-4 0  9993
2 17590 071.0047 331.7783 0002889 063.8282 296.3138 14.16740648551667
Epoch (UTC): 22 March 2017 20:25:34
Eccentricity: 0.0002889
inclination: 71.0047°
perigee height: 834 km
apogee height: 838 km
right ascension of ascending node: 331.7783°
argument of perigee: 63.8282°
revolutions per day: 14.16740648
mean anomaly at epoch: 296.3138°
orbit number at epoch: 55166

The dashed part of the orbit path shows where the satellite is in the earth's shadow,  

DLR